weather.gov     
National Weather Service

Regional Weather Roundup
NWS Homepage
This page is being discontinued on March 12, 2014.
The same data is available at this site. Please update your bookmarks.
Thank you, and we apologize for the inconvenience.
Please send an email to SR-SRH.Webmaster@noaa.gov with any concerns.


Current Version
Previous Version:    01  02  03  04  05  06  07  08  09  10  11  12  13  14  15  16  17  18  19  20  21  22  23  24  25  26  
[Printable]
441
ASUS45 KREV 242110
RWRNV
NEVADA REGIONAL WEATHER ROUNDUP
NATIONAL WEATHER SERVICE RENO NV
200 PM PDT FRI OCT 24 2014

NOTE: "FAIR" INDICATES FEW OR NO CLOUDS BELOW 12,000 FEET WITH NO
SIGNIFICANT WEATHER AND/OR OBSTRUCTIONS TO VISIBILITY.

NVZ001-003-004-242200-
WESTERN NEVADA

CITY           SKY/WX    TMP DP  RH WIND       PRES   REMARKS
RENO           MOSUNNY   80  19  10 SW23G31   29.97F
CARSON CITY    FAIR      79  14   8 SW14G22   29.99F
MINDEN         FAIR      79  18  10 SW21G30   30.00
FALLON         MOSUNNY   75  32  20 N10       29.98F
LOVELOCK       SUNNY     72  32  23 NW5       29.99F
HAWTHORNE      SUNNY     82  21  10 SE21G31   29.96F
$$

NVZ002-CAZ072-073-242200-
NORTHERN AND CENTRAL SIERRA

CITY           SKY/WX    TMP DP  RH WIND       PRES   REMARKS
S. LAKE TAHOE  SUNNY     71  17  12 S17G29    30.08F
TRUCKEE        SUNNY     70  25  18 S16G26    30.08F
SQUAW VLY 8000 NOT AVBL
SUSANVILLE     SUNNY     73  30  20 N5        29.97
BLUE CANYON    SUNNY     65  31  28 S16       30.10F
MAMMOTH LAKES  FAIR      70  18  13 SE13G21   30.17F
BRIDGEPORT     FAIR      72  11   9 SW16G25   30.11F
$$

NVZ030-031-036-242200-
NORTHERN NEVADA

CITY           SKY/WX    TMP DP  RH WIND       PRES   REMARKS
ELKO           SUNNY     78  19  11 SW13      30.07F
WINNEMUCCA     SUNNY     73  28  18 N6        30.01F
WENDOVER       SUNNY     63  34  34 E7        30.13F
$$

NVZ035-037-242200-
CENTRAL NEVADA

CITY           SKY/WX    TMP DP  RH WIND       PRES   REMARKS
ELY            SUNNY     74  19  12 SW21G33   30.19F
EUREKA           N/A     75  23  14 S15       30.13F
$$

NVZ013-014-242200-
SOUTH CENTRAL NEVADA

CITY           SKY/WX    TMP DP  RH WIND       PRES   REMARKS
TONOPAH        SUNNY     76  24  14 S15       30.13F
$$

NVZ017-020-022-242200-
SOUTHERN NEVADA

CITY           SKY/WX    TMP DP  RH WIND       PRES   REMARKS
LAS VEGAS      SUNNY     84  38  19 CALM      30.01F
N. LAS VEGAS   SUNNY     82  36  19 S9        30.03F
NELLIS AFB     SUNNY     85  41  21 SE7       30.02F
HENDERSON      SUNNY     84  40  21 NE7       30.06F
MERCURY        SUNNY     83  31  15 SE3       30.06F
$$




U.S. Dept. of Commerce
NOAA National Weather Service
1325 East West Highway
Silver Spring, MD 20910
E-mail: w-nws.webmaster@noaa.gov
Page last modified: May 16, 2007
NATIONAL WEATHER SERVICE: for Safety, for Work, for Fun - FOR LIFE